To NAV CANADA Home Page Login to a new session Search on AWWS site Feedback and Comments Disclaimer Vers la page française équivalente Tips FAQ What's new on the site To the Forecasts and Observations / NOTAM section To "File a Flight Plan" website Publications and other links Update of the User's profile FIC Telephone Numbers My Weather Data Folder Route Weather Data Regional Weather Data Local Weather Data To the Forecasts and Observations / NOTAM section
Request Generated 06/26/2017 at 22:24:54 UTC . Weather information available at that time is displayed.

METAR/TAF

AUPALUK/QC    

LWIS CYLA 262200Z AUTO 02011KT 02/01 A2944=
METAR CYLA 262100Z 01009KT 15SM FEW004 FEW015 BKN078 02/01 A2942 RMK
SF1SC1AC5 LAST STFD OBS/NXT 271200UTC SLP966=
METAR CYLA 262000Z 02011KT 15SM FEW004 SCT015 BKN040 OVC075 02/01
A2940 RMK SF2SC1SC2AS3 SLP960=

CYLA - No TAF is issued for this station

Your time UTC time
Weather data provided by Environment Canada and NAV CANADA